Location: Glencliff
(36.1226°N, 86.7183°W)
Time: 20:50:10
(UTC+00:00)

NOAA 11 - Pass Details

Date: 25 August 2019
Orbit: 832 x 850 km, 98.4° (Epoch: 23 October)

Event Time Altitude Azimuth Distance (km) Brightness Sun altitude
Rises 00:46:44 0° 162° (SSE) 3,387 7.0 -4.9°
Reaches altitude 10° 00:49:05 10° 161° (SSE) 2,458 6.3 -5.4°
Maximum altitude 00:54:32 79° 75° (ENE) 868 4.2 -6.4°
Drops below altitude 10° 01:00:03 10° 350° (N) 2,481 7.1 -7.5°
Sets 01:02:26 0° 349° (N) 3,422 7.8 -7.9°
